Tracking 28125 objects as of 3-Oct-2023
HD Live streaming from Space Station
objects crossing your sky now

STARLINK-4272

Track STARLINK-4272 now!
10-day predictions
STARLINK-4272 is classified as:


NORAD ID: 52866
Int'l Code: 2022-062AN
Perigee: 545.7 km
Apogee: 548.1 km
Inclination: 53.2 °
Period: 95.4 minutes
Semi major axis: 6917 km
RCS: Unknown
Launch date: June 17, 2022
Source: United States (US)
Launch site: AIR FORCE EASTERN TEST RANGE (AFETR)
Your satellite tracking list
Your tracking list is empty




NASA's NSSDC Master Catalog

Two Line Element Set (TLE):
1 52866U 22062AN  23276.11839311 -.00001453  00000-0 -73213-4 0  9991
2 52866  53.2185  53.0686 0001713  99.6223 260.4963 15.08831445 72271
Source of the keplerian elements: AFSPC